Wetterdaten: Mittwoch, 13.01.2016
Datum Zeit Temp. A. Feuchte A. Luftdruck Regen Wind Richtung Richtung Sonnenschein ET UV Solar Taupunkt Windchill Windben Empfang
13.01.2016 00:00 4,9 C 75 % 1004,9 hPa 0,0 l/m 17,2 km/h (3 Bft) W-SW 249 0 min 0,000 mm 0,0 UV-I 0 W/m 0,8 C -2,1 C 27,4 km/h (4 Bft) 97,52 %
13.01.2016 00:05 4,9 C 76 % 1004,9 hPa 0,0 l/m 16,3 km/h (3 Bft) SW 231 0 min 0,000 mm 0,0 UV-I 0 W/m 1,0 C -1,7 C 27,4 km/h (4 Bft) 97,22 %
13.01.2016 00:10 4,9 C 75 % 1005,0 hPa 0,0 l/m 20,0 km/h (4 Bft) SW 221 0 min 0,000 mm 0,0 UV-I 0 W/m 0,8 C -3,3 C 38,6 km/h (5 Bft) 97,64 %
13.01.2016 00:15 4,9 C 75 % 1005,1 hPa 0,0 l/m 18,1 km/h (3 Bft) S-SW 213 0 min 0,000 mm 0,0 UV-I 0 W/m 0,8 C -2,5 C 29,0 km/h (5 Bft) 96,23 %
13.01.2016 00:20 4,9 C 75 % 1005,2 hPa 0,0 l/m 20,2 km/h (4 Bft) W-SW 247 0 min 0,000 mm 0,0 UV-I 0 W/m 0,8 C -3,4 C 32,2 km/h (5 Bft) 97,50 %
13.01.2016 00:25 4,9 C 75 % 1005,2 hPa 0,0 l/m 17,0 km/h (3 Bft) W 265 0 min 0,000 mm 0,0 UV-I 0 W/m 0,8 C -2,0 C 25,7 km/h (4 Bft) 98,26 %
13.01.2016 00:30 4,9 C 75 % 1005,3 hPa 0,0 l/m 18,2 km/h (3 Bft) W-SW 248 0 min 0,000 mm 0,0 UV-I 0 W/m 0,8 C -2,6 C 29,0 km/h (5 Bft) 97,50 %
13.01.2016 00:35 4,9 C 75 % 1005,4 hPa 0,0 l/m 18,6 km/h (3 Bft) W-SW 245 0 min 0,000 mm 0,0 UV-I 0 W/m 0,8 C -2,7 C 32,2 km/h (5 Bft) 97,58 %
13.01.2016 00:40 5,0 C 76 % 1005,4 hPa 0,0 l/m 20,9 km/h (4 Bft) W-SW 237 0 min 0,000 mm 0,0 UV-I 0 W/m 1,1 C -3,5 C 35,4 km/h (5 Bft) 99,03 %
13.01.2016 00:45 4,9 C 77 % 1005,4 hPa 0,0 l/m 18,1 km/h (3 Bft) SW 236 0 min 0,000 mm 0,0 UV-I 0 W/m 1,2 C -2,5 C 27,4 km/h (4 Bft) 99,19 %
13.01.2016 00:50 4,8 C 78 % 1005,4 hPa 0,0 l/m 19,7 km/h (3 Bft) SW 225 0 min 0,000 mm 0,0 UV-I 0 W/m 1,3 C -3,3 C 30,6 km/h (5 Bft) 99,13 %
13.01.2016 00:55 4,7 C 79 % 1005,4 hPa 0,0 l/m 21,2 km/h (4 Bft) W-SW 241 0 min 0,000 mm 0,0 UV-I 0 W/m 1,4 C -4,0 C 33,8 km/h (5 Bft) 100,00 %
13.01.2016 01:00 4,7 C 79 % 1005,5 hPa 0,0 l/m 18,4 km/h (3 Bft) SW 226 0 min 0,051 mm 0,0 UV-I 0 W/m 1,4 C -2,9 C 30,6 km/h (5 Bft) 100,00 %
13.01.2016 01:05 4,5 C 81 % 1005,5 hPa 0,0 l/m 20,4 km/h (4 Bft) SW 232 0 min 0,000 mm 0,0 UV-I 0 W/m 1,5 C -4,0 C 32,2 km/h (5 Bft) 100,00 %
13.01.2016 01:10 4,4 C 82 % 1005,5 hPa 0,0 l/m 18,4 km/h (3 Bft) SW 229 0 min 0,000 mm 0,0 UV-I 0 W/m 1,6 C -3,3 C 29,0 km/h (5 Bft) 99,17 %
13.01.2016 01:15 4,4 C 82 % 1005,5 hPa 0,0 l/m 19,1 km/h (3 Bft) W-SW 246 0 min 0,000 mm 0,0 UV-I 0 W/m 1,6 C -3,6 C 33,8 km/h (5 Bft) 99,13 %
13.01.2016 01:20 4,3 C 83 % 1005,6 hPa 0,0 l/m 17,6 km/h (3 Bft) SW 235 0 min 0,000 mm 0,0 UV-I 0 W/m 1,7 C -3,0 C 29,0 km/h (5 Bft) 100,00 %
13.01.2016 01:25 4,3 C 83 % 1005,7 hPa 0,0 l/m 20,7 km/h (4 Bft) SW 218 0 min 0,000 mm 0,0 UV-I 0 W/m 1,7 C -4,4 C 29,0 km/h (5 Bft) 95,83 %
13.01.2016 01:30 4,3 C 83 % 1005,8 hPa 0,0 l/m 17,5 km/h (3 Bft) NW 317 0 min 0,000 mm 0,0 UV-I 0 W/m 1,7 C -3,0 C 30,6 km/h (5 Bft) 100,00 %
13.01.2016 01:35 4,3 C 83 % 1005,8 hPa 0,0 l/m 17,9 km/h (3 Bft) W-SW 239 0 min 0,000 mm 0,0 UV-I 0 W/m 1,7 C -3,2 C 29,0 km/h (5 Bft) 99,12 %
13.01.2016 01:40 4,3 C 83 % 1005,8 hPa 0,0 l/m 17,0 km/h (3 Bft) W-SW 238 0 min 0,000 mm 0,0 UV-I 0 W/m 1,7 C -2,8 C 27,4 km/h (4 Bft) 99,11 %
13.01.2016 01:45 4,3 C 83 % 1005,9 hPa 0,0 l/m 17,1 km/h (3 Bft) SW 219 0 min 0,000 mm 0,0 UV-I 0 W/m 1,7 C -2,8 C 27,4 km/h (4 Bft) 100,00 %
13.01.2016 01:50 4,3 C 83 % 1005,9 hPa 0,0 l/m 15,7 km/h (3 Bft) SW 216 0 min 0,000 mm 0,0 UV-I 0 W/m 1,7 C -2,1 C 25,7 km/h (4 Bft) 99,12 %
13.01.2016 01:55 4,3 C 83 % 1006,0 hPa 0,0 l/m 14,9 km/h (3 Bft) SW 234 0 min 0,000 mm 0,0 UV-I 0 W/m 1,7 C -1,7 C 22,5 km/h (4 Bft) 97,39 %
13.01.2016 02:00 4,3 C 83 % 1006,0 hPa 0,0 l/m 15,2 km/h (3 Bft) SW 216 0 min 0,025 mm 0,0 UV-I 0 W/m 1,7 C -1,9 C 27,4 km/h (4 Bft) 98,31 %
13.01.2016 02:05 4,3 C 83 % 1006,1 hPa 0,0 l/m 14,0 km/h (3 Bft) SW 234 0 min 0,000 mm 0,0 UV-I 0 W/m 1,7 C -1,2 C 22,5 km/h (4 Bft) 96,72 %
13.01.2016 02:10 4,2 C 83 % 1006,2 hPa 0,0 l/m 14,0 km/h (3 Bft) SW 230 0 min 0,000 mm 0,0 UV-I 0 W/m 1,6 C -1,4 C 22,5 km/h (4 Bft) 95,76 %
13.01.2016 02:15 4,2 C 83 % 1006,3 hPa 0,0 l/m 14,5 km/h (3 Bft) SW 224 0 min 0,000 mm 0,0 UV-I 0 W/m 1,6 C -1,6 C 22,5 km/h (4 Bft) 97,44 %
13.01.2016 02:20 4,1 C 84 % 1006,3 hPa 0,0 l/m 14,1 km/h (3 Bft) SW 230 0 min 0,000 mm 0,0 UV-I 0 W/m 1,6 C -1,5 C 22,5 km/h (4 Bft) 96,61 %
13.01.2016 02:25 4,1 C 84 % 1006,3 hPa 0,0 l/m 14,9 km/h (3 Bft) W-SW 242 0 min 0,000 mm 0,0 UV-I 0 W/m 1,6 C -2,0 C 22,5 km/h (4 Bft) 97,25 %
13.01.2016 02:30 4,1 C 84 % 1006,4 hPa 0,0 l/m 13,1 km/h (3 Bft) W-SW 243 0 min 0,000 mm 0,0 UV-I 0 W/m 1,6 C -1,0 C 24,1 km/h (4 Bft) 96,49 %
13.01.2016 02:35 4,1 C 84 % 1006,5 hPa 0,0 l/m 13,3 km/h (3 Bft) S-SO 167 0 min 0,000 mm 0,0 UV-I 0 W/m 1,6 C -1,1 C 25,7 km/h (4 Bft) 96,85 %
13.01.2016 02:40 4,1 C 84 % 1006,5 hPa 0,0 l/m 12,2 km/h (2 Bft) S-SW 205 0 min 0,000 mm 0,0 UV-I 0 W/m 1,6 C -0,4 C 22,5 km/h (4 Bft) 100,00 %
13.01.2016 02:45 4,1 C 84 % 1006,6 hPa 0,0 l/m 15,6 km/h (3 Bft) SW 225 0 min 0,000 mm 0,0 UV-I 0 W/m 1,6 C -2,3 C 24,1 km/h (4 Bft) 99,22 %
13.01.2016 02:50 4,0 C 84 % 1006,7 hPa 0,0 l/m 18,0 km/h (3 Bft) W-SW 237 0 min 0,000 mm 0,0 UV-I 0 W/m 1,5 C -3,6 C 27,4 km/h (4 Bft) 99,13 %
13.01.2016 02:55 4,0 C 84 % 1006,7 hPa 0,0 l/m 16,7 km/h (3 Bft) S-SW 213 0 min 0,000 mm 0,0 UV-I 0 W/m 1,5 C -3,0 C 25,7 km/h (4 Bft) 99,17 %
13.01.2016 03:00 4,0 C 84 % 1006,7 hPa 0,0 l/m 16,9 km/h (3 Bft) W-SW 242 0 min 0,000 mm 0,0 UV-I 0 W/m 1,5 C -3,1 C 29,0 km/h (5 Bft) 99,06 %
13.01.2016 03:05 3,9 C 84 % 1006,6 hPa 0,0 l/m 16,1 km/h (3 Bft) SW 234 0 min 0,026 mm 0,0 UV-I 0 W/m 1,4 C -2,8 C 25,7 km/h (4 Bft) 100,00 %
13.01.2016 03:10 3,8 C 84 % 1006,6 hPa 0,0 l/m 19,3 km/h (3 Bft) SW 232 0 min 0,000 mm 0,0 UV-I 0 W/m 1,4 C -4,4 C 30,6 km/h (5 Bft) 99,19 %
13.01.2016 03:15 3,7 C 85 % 1006,6 hPa 0,0 l/m 17,8 km/h (3 Bft) W 264 0 min 0,000 mm 0,0 UV-I 0 W/m 1,4 C -3,9 C 25,7 km/h (4 Bft) 99,15 %
13.01.2016 03:20 3,6 C 85 % 1006,6 hPa 0,0 l/m 19,6 km/h (3 Bft) W-SW 244 0 min 0,000 mm 0,0 UV-I 0 W/m 1,3 C -4,8 C 33,8 km/h (5 Bft) 97,46 %
13.01.2016 03:25 3,6 C 85 % 1006,6 hPa 0,0 l/m 21,2 km/h (4 Bft) SW 232 0 min 0,000 mm 0,0 UV-I 0 W/m 1,3 C -5,5 C 32,2 km/h (5 Bft) 99,10 %
13.01.2016 03:30 3,6 C 85 % 1006,7 hPa 0,0 l/m 18,7 km/h (3 Bft) S-SW 210 0 min 0,000 mm 0,0 UV-I 0 W/m 1,3 C -4,4 C 30,6 km/h (5 Bft) 99,19 %
13.01.2016 03:35 3,7 C 85 % 1006,8 hPa 0,0 l/m 17,8 km/h (3 Bft) SW 225 0 min 0,000 mm 0,0 UV-I 0 W/m 1,4 C -3,9 C 29,0 km/h (5 Bft) 100,00 %
13.01.2016 03:40 3,7 C 85 % 1006,7 hPa 0,0 l/m 15,7 km/h (3 Bft) SW 220 0 min 0,000 mm 0,0 UV-I 0 W/m 1,4 C -2,9 C 24,1 km/h (4 Bft) 100,00 %
13.01.2016 03:45 3,7 C 85 % 1006,7 hPa 0,0 l/m 18,7 km/h (3 Bft) W-SW 247 0 min 0,000 mm 0,0 UV-I 0 W/m 1,4 C -4,3 C 27,4 km/h (4 Bft) 100,00 %
13.01.2016 03:50 3,7 C 84 % 1006,9 hPa 0,0 l/m 19,7 km/h (3 Bft) SW 225 0 min 0,000 mm 0,0 UV-I 0 W/m 1,3 C -4,7 C 32,2 km/h (5 Bft) 99,28 %
13.01.2016 03:55 3,7 C 85 % 1006,9 hPa 0,0 l/m 21,3 km/h (4 Bft) W-SW 254 0 min 0,000 mm 0,0 UV-I 0 W/m 1,4 C -5,4 C 30,6 km/h (5 Bft) 99,15 %
13.01.2016 04:00 3,7 C 85 % 1007,0 hPa 0,0 l/m 19,5 km/h (3 Bft) W-SW 239 0 min 0,025 mm 0,0 UV-I 0 W/m 1,4 C -4,6 C 32,2 km/h (5 Bft) 97,25 %
13.01.2016 04:05 3,7 C 86 % 1007,0 hPa 0,0 l/m 20,1 km/h (4 Bft) W-SW 250 0 min 0,000 mm 0,0 UV-I 0 W/m 1,6 C -4,9 C 30,6 km/h (5 Bft) 98,95 %
13.01.2016 04:10 3,6 C 87 % 1007,0 hPa 0,0 l/m 21,7 km/h (4 Bft) SW 230 0 min 0,000 mm 0,0 UV-I 0 W/m 1,6 C -5,7 C 38,6 km/h (5 Bft) 97,52 %
13.01.2016 04:15 3,3 C 88 % 1007,1 hPa 0,0 l/m 20,2 km/h (4 Bft) W-SW 247 0 min 0,000 mm 0,0 UV-I 0 W/m 1,5 C -5,5 C 33,8 km/h (5 Bft) 97,50 %
13.01.2016 04:20 3,1 C 89 % 1007,3 hPa 0,0 l/m 20,3 km/h (4 Bft) S 171 0 min 0,000 mm 0,0 UV-I 0 W/m 1,5 C -5,8 C 33,8 km/h (5 Bft) 96,61 %
13.01.2016 04:25 2,8 C 90 % 1007,4 hPa 0,0 l/m 19,9 km/h (4 Bft) S 181 0 min 0,000 mm 0,0 UV-I 0 W/m 1,3 C -6,0 C 32,2 km/h (5 Bft) 98,21 %
13.01.2016 04:30 2,6 C 91 % 1007,5 hPa 0,0 l/m 19,1 km/h (3 Bft) S-SW 209 0 min 0,000 mm 0,0 UV-I 0 W/m 1,3 C -5,9 C 30,6 km/h (5 Bft) 97,30 %
13.01.2016 04:35 2,6 C 91 % 1007,5 hPa 0,0 l/m 23,1 km/h (4 Bft) W-SW 242 0 min 0,000 mm 0,0 UV-I 0 W/m 1,3 C -7,5 C 33,8 km/h (5 Bft) 96,85 %
13.01.2016 04:40 2,5 C 91 % 1007,3 hPa 0,0 l/m 19,4 km/h (3 Bft) W-SW 251 0 min 0,000 mm 0,0 UV-I 0 W/m 1,2 C -6,1 C 30,6 km/h (5 Bft) 97,09 %
13.01.2016 04:45 2,5 C 90 % 1007,2 hPa 0,0 l/m 18,2 km/h (3 Bft) W-SW 257 0 min 0,000 mm 0,0 UV-I 0 W/m 1,0 C -5,6 C 30,6 km/h (5 Bft) 100,00 %
13.01.2016 04:50 2,5 C 89 % 1007,2 hPa 0,0 l/m 20,7 km/h (4 Bft) W-SW 241 0 min 0,000 mm 0,0 UV-I 0 W/m 0,9 C -6,7 C 38,6 km/h (5 Bft) 99,08 %
13.01.2016 04:55 2,4 C 89 % 1007,2 hPa 0,0 l/m 17,9 km/h (3 Bft) W 271 0 min 0,000 mm 0,0 UV-I 0 W/m 0,8 C -5,6 C 27,4 km/h (4 Bft) 100,00 %
13.01.2016 05:00 2,4 C 90 % 1007,3 hPa 0,0 l/m 19,8 km/h (3 Bft) S-SW 213 0 min 0,025 mm 0,0 UV-I 0 W/m 0,9 C -6,4 C 29,0 km/h (5 Bft) 99,15 %
13.01.2016 05:05 2,4 C 90 % 1007,4 hPa 0,0 l/m 20,3 km/h (4 Bft) W-SW 244 0 min 0,000 mm 0,0 UV-I 0 W/m 0,9 C -6,7 C 32,2 km/h (5 Bft) 99,06 %
13.01.2016 05:10 2,3 C 89 % 1007,5 hPa 0,0 l/m 20,9 km/h (4 Bft) W-SW 240 0 min 0,000 mm 0,0 UV-I 0 W/m 0,7 C -7,0 C 32,2 km/h (5 Bft) 100,00 %
13.01.2016 05:15 2,3 C 90 % 1007,6 hPa 0,0 l/m 20,7 km/h (4 Bft) SW 234 0 min 0,000 mm 0,0 UV-I 0 W/m 0,8 C -7,0 C 32,2 km/h (5 Bft) 98,06 %
13.01.2016 05:20 2,2 C 90 % 1007,7 hPa 0,0 l/m 21,4 km/h (4 Bft) SW 232 0 min 0,000 mm 0,0 UV-I 0 W/m 0,7 C -7,4 C 33,8 km/h (5 Bft) 97,79 %
13.01.2016 05:25 2,2 C 90 % 1007,8 hPa 0,0 l/m 21,3 km/h (4 Bft) W-SW 238 0 min 0,000 mm 0,0 UV-I 0 W/m 0,7 C -7,3 C 37,0 km/h (5 Bft) 100,00 %
13.01.2016 05:30 2,2 C 90 % 1007,8 hPa 0,0 l/m 21,9 km/h (4 Bft) W-SW 244 0 min 0,000 mm 0,0 UV-I 0 W/m 0,7 C -7,6 C 35,4 km/h (5 Bft) 100,00 %
13.01.2016 05:35 2,2 C 90 % 1007,7 hPa 0,0 l/m 20,0 km/h (4 Bft) W-SW 239 0 min 0,000 mm 0,0 UV-I 0 W/m 0,7 C -6,8 C 30,6 km/h (5 Bft) 100,00 %
13.01.2016 05:40 2,3 C 90 % 1007,6 hPa 0,0 l/m 19,8 km/h (3 Bft) SW 219 0 min 0,000 mm 0,0 UV-I 0 W/m 0,8 C -6,6 C 32,2 km/h (5 Bft) 100,00 %
13.01.2016 05:45 2,4 C 89 % 1007,6 hPa 0,0 l/m 21,0 km/h (4 Bft) W-SW 254 0 min 0,000 mm 0,0 UV-I 0 W/m 0,8 C -7,0 C 33,8 km/h (5 Bft) 100,00 %
13.01.2016 05:50 2,5 C 89 % 1007,6 hPa 0,0 l/m 22,4 km/h (4 Bft) SW 218 0 min 0,000 mm 0,0 UV-I 0 W/m 0,9 C -7,4 C 41,8 km/h (6 Bft) 100,00 %
13.01.2016 05:55 2,7 C 88 % 1007,7 hPa 0,0 l/m 20,0 km/h (4 Bft) S-SW 194 0 min 0,000 mm 0,0 UV-I 0 W/m 0,9 C -6,1 C 33,8 km/h (5 Bft) 99,08 %
13.01.2016 06:00 2,7 C 87 % 1007,7 hPa 0,0 l/m 18,2 km/h (3 Bft) W-SW 248 0 min 0,026 mm 0,0 UV-I 0 W/m 0,8 C -5,3 C 32,2 km/h (5 Bft) 100,00 %
13.01.2016 06:05 2,7 C 86 % 1007,8 hPa 0,0 l/m 18,0 km/h (3 Bft) SW 230 0 min 0,000 mm 0,0 UV-I 0 W/m 0,6 C -5,2 C 32,2 km/h (5 Bft) 100,00 %
13.01.2016 06:10 2,8 C 86 % 1007,8 hPa 0,0 l/m 18,9 km/h (3 Bft) SW 225 0 min 0,000 mm 0,0 UV-I 0 W/m 0,7 C -5,5 C 30,6 km/h (5 Bft) 99,19 %
13.01.2016 06:15 2,9 C 85 % 1007,7 hPa 0,0 l/m 19,0 km/h (3 Bft) W-SW 255 0 min 0,000 mm 0,0 UV-I 0 W/m 0,6 C -5,4 C 30,6 km/h (5 Bft) 95,73 %
13.01.2016 06:20 3,0 C 84 % 1007,6 hPa 0,0 l/m 20,9 km/h (4 Bft) S-SW 209 0 min 0,000 mm 0,0 UV-I 0 W/m 0,6 C -6,1 C 33,8 km/h (5 Bft) 98,17 %
13.01.2016 06:25 3,0 C 84 % 1007,7 hPa 0,0 l/m 23,7 km/h (4 Bft) W-SW 257 0 min 0,000 mm 0,0 UV-I 0 W/m 0,6 C -7,2 C 35,4 km/h (5 Bft) 96,85 %
13.01.2016 06:30 3,1 C 84 % 1007,7 hPa 0,0 l/m 20,4 km/h (4 Bft) SW 232 0 min 0,000 mm 0,0 UV-I 0 W/m 0,7 C -5,8 C 30,6 km/h (5 Bft) 97,30 %
13.01.2016 06:35 3,2 C 83 % 1007,6 hPa 0,0 l/m 20,1 km/h (4 Bft) W-SW 246 0 min 0,000 mm 0,0 UV-I 0 W/m 0,6 C -5,5 C 40,2 km/h (6 Bft) 97,32 %
13.01.2016 06:40 3,2 C 82 % 1007,7 hPa 0,0 l/m 21,7 km/h (4 Bft) SW 227 0 min 0,000 mm 0,0 UV-I 0 W/m 0,4 C -6,2 C 40,2 km/h (6 Bft) 97,39 %
13.01.2016 06:45 3,2 C 81 % 1007,5 hPa 0,0 l/m 22,1 km/h (4 Bft) W-SW 245 0 min 0,000 mm 0,0 UV-I 0 W/m 0,3 C -6,3 C 40,2 km/h (6 Bft) 95,83 %
13.01.2016 06:50 3,2 C 81 % 1007,6 hPa 0,0 l/m 21,7 km/h (4 Bft) SW 223 0 min 0,000 mm 0,0 UV-I 0 W/m 0,3 C -6,2 C 37,0 km/h (5 Bft) 99,19 %
13.01.2016 06:55 3,2 C 81 % 1007,6 hPa 0,0 l/m 22,5 km/h (4 Bft) W-SW 251 0 min 0,000 mm 0,0 UV-I 0 W/m 0,3 C -6,5 C 40,2 km/h (6 Bft) 98,33 %
13.01.2016 07:00 3,3 C 80 % 1007,6 hPa 0,0 l/m 22,4 km/h (4 Bft) W-SW 242 0 min 0,025 mm 0,0 UV-I 0 W/m 0,2 C -6,3 C 38,6 km/h (5 Bft) 100,00 %
13.01.2016 07:05 3,4 C 79 % 1007,7 hPa 0,0 l/m 21,3 km/h (4 Bft) W-SW 240 0 min 0,000 mm 0,0 UV-I 0 W/m 0,1 C -5,8 C 38,6 km/h (5 Bft) 96,23 %
13.01.2016 07:10 3,4 C 78 % 1007,7 hPa 0,0 l/m 23,1 km/h (4 Bft) W-SW 238 0 min 0,000 mm 0,0 UV-I 0 W/m -0,1 C -6,4 C 33,8 km/h (5 Bft) 100,00 %
13.01.2016 07:15 3,5 C 78 % 1007,8 hPa 0,0 l/m 21,3 km/h (4 Bft) W-SW 244 0 min 0,000 mm 0,0 UV-I 0 W/m 0,0 C -5,6 C 32,2 km/h (5 Bft) 99,19 %
13.01.2016 07:20 3,5 C 78 % 1007,8 hPa 0,0 l/m 28,8 km/h (4 Bft) W-SW 244 0 min 0,000 mm 0,0 UV-I 0 W/m 0,0 C -8,1 C 43,5 km/h (6 Bft) 100,00 %
13.01.2016 07:25 3,5 C 79 % 1007,7 hPa 0,0 l/m 29,4 km/h (5 Bft) W 261 0 min 0,000 mm 0,0 UV-I 0 W/m 0,2 C -8,3 C 49,9 km/h (6 Bft) 99,24 %
13.01.2016 07:30 3,3 C 80 % 1007,8 hPa 0,0 l/m 29,6 km/h (5 Bft) S-SW 194 0 min 0,000 mm 0,0 UV-I 0 W/m 0,2 C -8,7 C 43,5 km/h (6 Bft) 98,11 %
13.01.2016 07:35 3,2 C 82 % 1007,8 hPa 0,0 l/m 28,8 km/h (4 Bft) SW 236 0 min 0,000 mm 0,0 UV-I 0 W/m 0,4 C -8,6 C 46,7 km/h (6 Bft) 99,26 %
13.01.2016 07:40 2,9 C 84 % 1008,0 hPa 0,0 l/m 23,1 km/h (4 Bft) SW 235 0 min 0,000 mm 0,0 UV-I 0 W/m 0,5 C -7,1 C 38,6 km/h (5 Bft) 100,00 %
13.01.2016 07:45 2,8 C 85 % 1008,0 hPa 0,0 l/m 21,9 km/h (4 Bft) W-SW 255 0 min 0,000 mm 0,0 UV-I 0 W/m 0,5 C -6,8 C 48,3 km/h (6 Bft) 99,13 %
13.01.2016 07:50 2,7 C 85 % 1008,1 hPa 0,0 l/m 19,2 km/h (3 Bft) S-SW 210 0 min 0,000 mm 0,0 UV-I 0 W/m 0,4 C -5,8 C 37,0 km/h (5 Bft) 99,12 %
13.01.2016 07:55 2,6 C 86 % 1008,2 hPa 0,0 l/m 21,5 km/h (4 Bft) SW 236 0 min 0,000 mm 0,0 UV-I 0 W/m 0,5 C -6,9 C 40,2 km/h (6 Bft) 100,00 %
13.01.2016 08:00 2,6 C 86 % 1008,3 hPa 0,0 l/m 20,1 km/h (4 Bft) SW 215 0 min 0,026 mm 0,0 UV-I 1 W/m 0,5 C -6,3 C 30,6 km/h (5 Bft) 100,00 %
13.01.2016 08:05 2,6 C 87 % 1008,3 hPa 0,0 l/m 19,6 km/h (3 Bft) W-SW 254 0 min 0,000 mm 0,0 UV-I 5 W/m 0,7 C -6,1 C 30,6 km/h (5 Bft) 98,36 %
13.01.2016 08:10 2,5 C 86 % 1008,5 hPa 0,0 l/m 21,9 km/h (4 Bft) SW 227 0 min 0,000 mm 0,0 UV-I 9 W/m 0,4 C -7,2 C 35,4 km/h (5 Bft) 100,00 %
13.01.2016 08:15 2,6 C 87 % 1008,4 hPa 0,0 l/m 21,7 km/h (4 Bft) W-SW 239 5 min 0,000 mm 0,0 UV-I 25 W/m 0,7 C -7,0 C 35,4 km/h (5 Bft) 99,17 %
13.01.2016 08:20 2,6 C 86 % 1008,4 hPa 0,0 l/m 23,4 km/h (4 Bft) SW 225 5 min 0,000 mm 0,0 UV-I 47 W/m 0,5 C -7,6 C 43,5 km/h (6 Bft) 97,56 %
13.01.2016 08:25 2,7 C 86 % 1008,4 hPa 0,0 l/m 20,7 km/h (4 Bft) W-SW 251 0 min 0,000 mm 0,0 UV-I 34 W/m 0,6 C -6,4 C 37,0 km/h (5 Bft) 95,65 %
13.01.2016 08:30 2,8 C 85 % 1008,5 hPa 0,0 l/m 24,4 km/h (4 Bft) S-SW 207 0 min 0,000 mm 0,0 UV-I 25 W/m 0,5 C -7,7 C 35,4 km/h (5 Bft) 97,37 %
13.01.2016 08:35 2,9 C 85 % 1008,7 hPa 0,0 l/m 26,2 km/h (4 Bft) W-SW 242 0 min 0,000 mm 0,0 UV-I 34 W/m 0,6 C -8,2 C 41,8 km/h (6 Bft) 97,32 %
13.01.2016 08:40 3,1 C 84 % 1008,7 hPa 0,0 l/m 25,0 km/h (4 Bft) W 264 0 min 0,000 mm 0,0 UV-I 31 W/m 0,7 C -7,5 C 41,8 km/h (6 Bft) 97,39 %
13.01.2016 08:45 3,1 C 84 % 1008,8 hPa 0,0 l/m 20,3 km/h (4 Bft) SW 214 0 min 0,000 mm 0,0 UV-I 28 W/m 0,7 C -5,8 C 32,2 km/h (5 Bft) 96,12 %
13.01.2016 08:50 3,1 C 84 % 1008,7 hPa 0,0 l/m 18,4 km/h (3 Bft) S 190 0 min 0,000 mm 0,0 UV-I 39 W/m 0,7 C -4,9 C 27,4 km/h (4 Bft) 97,25 %
13.01.2016 08:55 3,1 C 85 % 1008,8 hPa 0,0 l/m 16,8 km/h (3 Bft) W-SW 239 0 min 0,000 mm 0,0 UV-I 74 W/m 0,8 C -4,2 C 30,6 km/h (5 Bft) 99,15 %
13.01.2016 09:00 3,2 C 85 % 1008,7 hPa 0,0 l/m 18,7 km/h (3 Bft) W 273 0 min 0,050 mm 0,0 UV-I 71 W/m 0,9 C -4,9 C 30,6 km/h (5 Bft) 99,17 %
13.01.2016 09:05 3,2 C 84 % 1008,7 hPa 0,0 l/m 16,4 km/h (3 Bft) W-SW 239 0 min 0,000 mm 0,0 UV-I 53 W/m 0,8 C -3,8 C 30,6 km/h (5 Bft) 98,21 %
13.01.2016 09:10 3,3 C 84 % 1008,6 hPa 0,0 l/m 16,2 km/h (3 Bft) W-SW 238 0 min 0,000 mm 0,0 UV-I 67 W/m 0,9 C -3,6 C 27,4 km/h (4 Bft) 99,17 %
13.01.2016 09:15 3,3 C 84 % 1008,6 hPa 0,0 l/m 15,3 km/h (3 Bft) W-SW 246 5 min 0,000 mm 0,0 UV-I 116 W/m 0,9 C -3,1 C 25,7 km/h (4 Bft) 100,00 %
13.01.2016 09:20 3,4 C 83 % 1008,5 hPa 0,0 l/m 17,2 km/h (3 Bft) SW 224 5 min 0,000 mm 0,0 UV-I 129 W/m 0,8 C -4,0 C 29,0 km/h (5 Bft) 100,00 %
13.01.2016 09:30 3,9 C 81 % 1008,5 hPa 0,0 l/m 19,5 km/h (3 Bft) SW 219 0 min 0,000 mm 0,0 UV-I 79 W/m 0,9 C -4,4 C 29,0 km/h (5 Bft) 99,32 %
13.01.2016 09:35 3,9 C 81 % 1008,5 hPa 0,0 l/m 19,1 km/h (3 Bft) W-SW 251 0 min 0,000 mm 0,0 UV-I 56 W/m 0,9 C -4,2 C 33,8 km/h (5 Bft) 100,00 %
13.01.2016 09:40 3,9 C 80 % 1008,6 hPa 0,0 l/m 21,7 km/h (4 Bft) SW 222 0 min 0,000 mm 0,0 UV-I 96 W/m 0,8 C -5,3 C 35,4 km/h (5 Bft) 98,33 %
13.01.2016 09:45 4,1 C 80 % 1008,6 hPa 0,0 l/m 17,7 km/h (3 Bft) SW 225 5 min 0,000 mm 0,0 UV-I 201 W/m 1,0 C -3,3 C 33,8 km/h (5 Bft) 100,00 %
13.01.2016 09:50 4,6 C 78 % 1008,5 hPa 0,0 l/m 23,1 km/h (4 Bft) W-SW 246 5 min 0,000 mm 0,0 UV-I 281 W/m 1,1 C -4,8 C 35,4 km/h (5 Bft) 100,00 %
13.01.2016 09:55 4,8 C 78 % 1008,6 hPa 0,0 l/m 20,9 km/h (4 Bft) SW 219 5 min 0,000 mm 0,0 UV-I 223 W/m 1,3 C -3,8 C 33,8 km/h (5 Bft) 100,00 %
13.01.2016 10:00 4,8 C 76 % 1008,5 hPa 0,0 l/m 18,5 km/h (3 Bft) SW 227 0 min 0,077 mm 0,0 UV-I 81 W/m 0,9 C -2,8 C 32,2 km/h (5 Bft) 100,00 %
13.01.2016 10:05 4,7 C 76 % 1008,6 hPa 0,0 l/m 23,1 km/h (4 Bft) W-SW 245 0 min 0,000 mm 0,0 UV-I 54 W/m 0,8 C -4,7 C 33,8 km/h (5 Bft) 99,12 %
13.01.2016 10:10 4,7 C 75 % 1008,7 hPa 0,0 l/m 21,0 km/h (4 Bft) SW 227 0 min 0,000 mm 0,0 UV-I 52 W/m 0,7 C -4,0 C 37,0 km/h (5 Bft) 100,00 %
13.01.2016 10:15 4,8 C 74 % 1008,7 hPa 0,0 l/m 21,8 km/h (4 Bft) S-SW 211 0 min 0,000 mm 0,0 UV-I 48 W/m 0,6 C -4,1 C 35,4 km/h (5 Bft) 100,00 %
13.01.2016 10:20 4,8 C 73 % 1008,7 hPa 0,0 l/m 27,0 km/h (4 Bft) SW 214 0 min 0,000 mm 0,0 UV-I 52 W/m 0,4 C -5,8 C 43,5 km/h (6 Bft) 96,40 %
13.01.2016 10:25 4,8 C 73 % 1008,7 hPa 0,0 l/m 26,2 km/h (4 Bft) W-SW 252 0 min 0,000 mm 0,0 UV-I 60 W/m 0,4 C -5,6 C 41,8 km/h (6 Bft) 97,58 %
13.01.2016 10:30 4,9 C 73 % 1008,7 hPa 0,0 l/m 23,8 km/h (4 Bft) W-SW 240 0 min 0,000 mm 0,0 UV-I 108 W/m 0,5 C -4,7 C 40,2 km/h (6 Bft) 97,44 %
13.01.2016 10:35 4,9 C 73 % 1008,7 hPa 0,0 l/m 29,7 km/h (5 Bft) S-SW 213 0 min 0,000 mm 0,0 UV-I 95 W/m 0,5 C -6,4 C 46,7 km/h (6 Bft) 96,69 %
13.01.2016 10:40 4,9 C 73 % 1008,7 hPa 0,0 l/m 30,6 km/h (5 Bft) W-SW 246 0 min 0,000 mm 0,0 UV-I 67 W/m 0,5 C -6,7 C 49,9 km/h (6 Bft) 97,52 %
13.01.2016 10:45 4,9 C 73 % 1008,7 hPa 0,0 l/m 29,6 km/h (5 Bft) SW 226 0 min 0,000 mm 0,0 UV-I 63 W/m 0,5 C -6,4 C 45,1 km/h (6 Bft) 97,22 %
13.01.2016 10:50 4,9 C 73 % 1008,6 hPa 0,0 l/m 26,2 km/h (4 Bft) SW 224 0 min 0,000 mm 0,0 UV-I 61 W/m 0,5 C -5,5 C 46,7 km/h (6 Bft) 99,19 %
13.01.2016 10:55 4,9 C 73 % 1008,6 hPa 0,0 l/m 26,9 km/h (4 Bft) W-SW 239 0 min 0,000 mm 0,0 UV-I 58 W/m 0,5 C -5,7 C 46,7 km/h (6 Bft) 98,26 %
13.01.2016 11:00 4,8 C 74 % 1008,5 hPa 0,0 l/m 28,3 km/h (4 Bft) SW 219 0 min 0,076 mm 0,0 UV-I 46 W/m 0,6 C -6,2 C 56,3 km/h (7 Bft) 100,00 %
13.01.2016 11:05 4,8 C 73 % 1008,5 hPa 0,0 l/m 29,9 km/h (5 Bft) SW 219 0 min 0,000 mm 0,0 UV-I 35 W/m 0,4 C -6,6 C 48,3 km/h (6 Bft) 100,00 %
13.01.2016 11:10 4,8 C 74 % 1008,4 hPa 0,0 l/m 24,2 km/h (4 Bft) SW 218 0 min 0,000 mm 0,0 UV-I 33 W/m 0,6 C -5,0 C 40,2 km/h (6 Bft) 99,10 %
13.01.2016 11:15 4,9 C 73 % 1008,6 hPa 0,0 l/m 27,6 km/h (4 Bft) SW 224 0 min 0,000 mm 0,0 UV-I 43 W/m 0,5 C -5,9 C 64,4 km/h (8 Bft) 99,17 %
13.01.2016 11:20 4,9 C 74 % 1008,5 hPa 0,0 l/m 29,0 km/h (5 Bft) W-SW 246 0 min 0,000 mm 0,0 UV-I 60 W/m 0,7 C -6,3 C 56,3 km/h (7 Bft) 99,15 %
13.01.2016 11:25 4,9 C 74 % 1008,6 hPa 0,0 l/m 26,3 km/h (4 Bft) W-SW 244 0 min 0,000 mm 0,0 UV-I 45 W/m 0,7 C -5,5 C 45,1 km/h (6 Bft) 99,10 %
13.01.2016 11:30 4,8 C 76 % 1008,6 hPa 0,0 l/m 30,7 km/h (5 Bft) SW 216 0 min 0,000 mm 0,0 UV-I 37 W/m 0,9 C -6,8 C 48,3 km/h (6 Bft) 100,00 %
13.01.2016 11:35 4,6 C 77 % 1008,6 hPa 0,0 l/m 35,6 km/h (5 Bft) W-SW 240 0 min 0,000 mm 0,0 UV-I 50 W/m 0,9 C -8,3 C 57,9 km/h (7 Bft) 100,00 %
13.01.2016 11:40 4,6 C 78 % 1008,6 hPa 0,0 l/m 31,7 km/h (5 Bft) SW 225 0 min 0,000 mm 0,0 UV-I 76 W/m 1,1 C -7,4 C 45,1 km/h (6 Bft) 100,00 %
13.01.2016 11:45 4,5 C 78 % 1008,6 hPa 0,0 l/m 33,5 km/h (5 Bft) SW 215 0 min 0,000 mm 0,0 UV-I 59 W/m 1,0 C -7,9 C 53,1 km/h (7 Bft) 100,00 %
13.01.2016 11:50 4,3 C 80 % 1008,6 hPa 0,0 l/m 32,9 km/h (5 Bft) SW 221 0 min 0,000 mm 0,0 UV-I 47 W/m 1,2 C -8,1 C 61,2 km/h (7 Bft) 100,00 %
13.01.2016 11:55 4,2 C 82 % 1008,7 hPa 0,0 l/m 28,1 km/h (4 Bft) W 273 0 min 0,000 mm 0,0 UV-I 50 W/m 1,4 C -7,0 C 46,7 km/h (6 Bft) 100,00 %
13.01.2016 12:00 4,2 C 82 % 1008,6 hPa 0,0 l/m 27,6 km/h (4 Bft) W 262 0 min 0,076 mm 0,0 UV-I 87 W/m 1,4 C -6,8 C 45,1 km/h (6 Bft) 100,00 %
13.01.2016 12:05 4,3 C 83 % 1008,7 hPa 0,0 l/m 24,9 km/h (4 Bft) W 275 0 min 0,000 mm 0,0 UV-I 82 W/m 1,7 C -5,9 C 40,2 km/h (6 Bft) 99,15 %
13.01.2016 12:10 4,3 C 81 % 1008,8 hPa 0,0 l/m 29,7 km/h (5 Bft) W-SW 257 0 min 0,000 mm 0,0 UV-I 84 W/m 1,3 C -7,3 C 46,7 km/h (6 Bft) 99,08 %
13.01.2016 12:15 4,4 C 81 % 1008,7 hPa 0,0 l/m 29,9 km/h (5 Bft) SW 225 0 min 0,000 mm 0,0 UV-I 60 W/m 1,4 C -7,2 C 51,5 km/h (7 Bft) 98,39 %
13.01.2016 12:20 4,5 C 81 % 1008,9 hPa 0,0 l/m 25,9 km/h (4 Bft) W 272 0 min 0,000 mm 0,0 UV-I 63 W/m 1,5 C -5,9 C 41,8 km/h (6 Bft) 97,44 %
13.01.2016 12:25 4,5 C 81 % 1008,8 hPa 0,0 l/m 30,3 km/h (5 Bft) W-SW 238 0 min 0,000 mm 0,0 UV-I 79 W/m 1,5 C -7,2 C 48,3 km/h (6 Bft) 96,43 %
13.01.2016 12:30 4,4 C 82 % 1008,9 hPa 0,0 l/m 27,0 km/h (4 Bft) SW 225 0 min 0,000 mm 0,0 UV-I 80 W/m 1,6 C -6,4 C 45,1 km/h (6 Bft) 96,43 %
13.01.2016 12:35 4,3 C 83 % 1008,8 hPa 0,0 l/m 33,3 km/h (5 Bft) S-SW 212 0 min 0,000 mm 0,0 UV-I 72 W/m 1,7 C -8,2 C 54,7 km/h (7 Bft) 97,56 %
13.01.2016 12:40 4,2 C 84 % 1009,0 hPa 0,0 l/m 30,0 km/h (5 Bft) W-SW 244 0 min 0,000 mm 0,0 UV-I 109 W/m 1,7 C -7,5 C 49,9 km/h (6 Bft) 95,65 %
13.01.2016 12:45 4,2 C 84 % 1009,1 hPa 0,0 l/m 27,3 km/h (4 Bft) SW 232 0 min 0,000 mm 0,0 UV-I 119 W/m 1,7 C -6,7 C 49,9 km/h (6 Bft) 95,83 %
13.01.2016 12:50 4,3 C 83 % 1009,3 hPa 0,0 l/m 28,6 km/h (4 Bft) SW 233 0 min 0,000 mm 0,0 UV-I 136 W/m 1,7 C -7,0 C 46,7 km/h (6 Bft) 99,11 %
13.01.2016 12:55 4,3 C 83 % 1009,2 hPa 0,0 l/m 26,2 km/h (4 Bft) W-SW 255 0 min 0,000 mm 0,0 UV-I 128 W/m 1,7 C -6,3 C 43,5 km/h (6 Bft) 98,35 %
13.01.2016 13:00 4,3 C 82 % 1009,6 hPa 0,0 l/m 33,3 km/h (5 Bft) SW 223 0 min 0,076 mm 0,0 UV-I 128 W/m 1,5 C -8,2 C 54,7 km/h (7 Bft) 96,75 %
13.01.2016 13:05 4,4 C 82 % 1009,6 hPa 0,0 l/m 27,2 km/h (4 Bft) W-SW 246 0 min 0,000 mm 0,0 UV-I 106 W/m 1,6 C -6,4 C 45,1 km/h (6 Bft) 100,00 %
13.01.2016 13:10 4,4 C 82 % 1009,7 hPa 0,0 l/m 22,1 km/h (4 Bft) SW 221 0 min 0,000 mm 0,0 UV-I 97 W/m 1,6 C -4,8 C 35,4 km/h (5 Bft) 99,11 %
13.01.2016 13:15 4,5 C 82 % 1009,8 hPa 0,0 l/m 25,5 km/h (4 Bft) W-SW 252 0 min 0,000 mm 0,0 UV-I 122 W/m 1,7 C -5,8 C 45,1 km/h (6 Bft) 100,00 %
13.01.2016 13:20 4,6 C 81 % 1009,8 hPa 0,0 l/m 28,8 km/h (4 Bft) W-SW 243 0 min 0,000 mm 0,0 UV-I 136 W/m 1,6 C -6,6 C 51,5 km/h (7 Bft) 100,00 %
13.01.2016 13:25 4,6 C 81 % 1009,9 hPa 0,0 l/m 27,1 km/h (4 Bft) W 267 0 min 0,000 mm 0,0 UV-I 154 W/m 1,6 C -6,1 C 51,5 km/h (7 Bft) 99,21 %
13.01.2016 13:30 4,7 C 81 % 1010,1 hPa 0,0 l/m 27,5 km/h (4 Bft) W-SW 249 0 min 0,000 mm 0,0 UV-I 144 W/m 1,7 C -6,1 C 43,5 km/h (6 Bft) 99,15 %
13.01.2016 13:35 4,6 C 81 % 1010,4 hPa 0,0 l/m 25,8 km/h (4 Bft) W 262 0 min 0,000 mm 0,0 UV-I 64 W/m 1,6 C -5,7 C 41,8 km/h (6 Bft) 100,00 %
13.01.2016 13:40 4,3 C 83 % 1010,3 hPa 0,0 l/m 31,6 km/h (5 Bft) W 261 0 min 0,000 mm 0,0 UV-I 29 W/m 1,7 C -7,8 C 51,5 km/h (7 Bft) 100,00 %
13.01.2016 13:45 4,1 C 85 % 1010,3 hPa 0,0 l/m 29,9 km/h (5 Bft) SW 226 0 min 0,000 mm 0,0 UV-I 46 W/m 1,8 C -7,6 C 53,1 km/h (7 Bft) 100,00 %
13.01.2016 13:50 3,9 C 86 % 1010,4 hPa 0,0 l/m 30,3 km/h (5 Bft) W-SW 256 0 min 0,000 mm 0,0 UV-I 75 W/m 1,8 C -8,0 C 51,5 km/h (7 Bft) 99,15 %
13.01.2016 13:55 3,9 C 86 % 1010,6 hPa 0,0 l/m 24,9 km/h (4 Bft) SW 232 0 min 0,000 mm 0,0 UV-I 83 W/m 1,8 C -6,4 C 46,7 km/h (6 Bft) 99,17 %
13.01.2016 14:00 4,1 C 85 % 1010,7 hPa 0,0 l/m 25,3 km/h (4 Bft) S-SW 212 0 min 0,076 mm 0,0 UV-I 84 W/m 1,8 C -6,3 C 54,7 km/h (7 Bft) 100,00 %
13.01.2016 14:05 4,1 C 85 % 1010,7 hPa 0,0 l/m 24,6 km/h (4 Bft) W-SW 251 0 min 0,000 mm 0,0 UV-I 65 W/m 1,8 C -6,0 C 38,6 km/h (5 Bft) 98,32 %
13.01.2016 14:10 4,1 C 85 % 1010,8 hPa 0,0 l/m 24,5 km/h (4 Bft) SW 233 0 min 0,000 mm 0,0 UV-I 26 W/m 1,8 C -6,0 C 45,1 km/h (6 Bft) 100,00 %
13.01.2016 14:15 4,0 C 85 % 1010,9 hPa 0,0 l/m 24,1 km/h (4 Bft) W-SW 240 0 min 0,000 mm 0,0 UV-I 33 W/m 1,7 C -6,0 C 37,0 km/h (5 Bft) 96,52 %
13.01.2016 14:20 3,9 C 85 % 1010,8 hPa 0,0 l/m 23,1 km/h (4 Bft) SW 229 0 min 0,000 mm 0,0 UV-I 44 W/m 1,6 C -5,8 C 33,8 km/h (5 Bft) 97,30 %
13.01.2016 14:25 3,9 C 86 % 1010,9 hPa 0,0 l/m 25,5 km/h (4 Bft) SW 222 0 min 0,000 mm 0,0 UV-I 43 W/m 1,8 C -6,6 C 40,2 km/h (6 Bft) 97,58 %
13.01.2016 14:30 3,9 C 86 % 1011,1 hPa 0,0 l/m 25,1 km/h (4 Bft) S-SW 210 0 min 0,000 mm 0,0 UV-I 30 W/m 1,8 C -6,5 C 38,6 km/h (5 Bft) 97,44 %
13.01.2016 14:35 3,9 C 86 % 1011,2 hPa 0,2 l/m 26,0 km/h (4 Bft) W-SW 247 0 min 0,000 mm 0,0 UV-I 31 W/m 1,8 C -6,8 C 46,7 km/h (6 Bft) 97,50 %
13.01.2016 14:40 3,9 C 86 % 1011,3 hPa 0,0 l/m 24,2 km/h (4 Bft) W 264 0 min 0,000 mm 0,0 UV-I 30 W/m 1,8 C -6,2 C 41,8 km/h (6 Bft) 97,09 %
13.01.2016 14:45 3,8 C 87 % 1011,4 hPa 0,0 l/m 25,3 km/h (4 Bft) W-SW 240 0 min 0,000 mm 0,0 UV-I 28 W/m 1,8 C -6,7 C 41,8 km/h (6 Bft) 97,50 %
13.01.2016 14:50 3,8 C 87 % 1011,5 hPa 0,2 l/m 26,5 km/h (4 Bft) W-SW 250 0 min 0,000 mm 0,0 UV-I 23 W/m 1,8 C -7,0 C 43,5 km/h (6 Bft) 96,77 %
13.01.2016 14:55 3,7 C 88 % 1011,6 hPa 0,0 l/m 25,6 km/h (4 Bft) SW 221 0 min 0,000 mm 0,0 UV-I 28 W/m 1,9 C -6,9 C 41,8 km/h (6 Bft) 98,31 %
13.01.2016 15:00 3,5 C 89 % 1011,7 hPa 0,0 l/m 24,4 km/h (4 Bft) SW 221 0 min 0,051 mm 0,0 UV-I 22 W/m 1,9 C -6,8 C 49,9 km/h (6 Bft) 96,67 %
13.01.2016 15:05 3,4 C 89 % 1011,8 hPa 0,0 l/m 21,6 km/h (4 Bft) W-SW 248 0 min 0,000 mm 0,0 UV-I 21 W/m 1,8 C -5,9 C 37,0 km/h (5 Bft) 100,00 %
13.01.2016 15:10 3,3 C 89 % 1011,9 hPa 0,0 l/m 23,1 km/h (4 Bft) SW 232 0 min 0,000 mm 0,0 UV-I 25 W/m 1,7 C -6,6 C 35,4 km/h (5 Bft) 99,11 %
13.01.2016 15:15 3,4 C 89 % 1012,1 hPa 0,0 l/m 25,1 km/h (4 Bft) S-SW 208 0 min 0,000 mm 0,0 UV-I 23 W/m 1,8 C -7,1 C 37,0 km/h (5 Bft) 99,15 %
13.01.2016 15:20 3,6 C 88 % 1012,3 hPa 0,0 l/m 21,9 km/h (4 Bft) SW 231 0 min 0,000 mm 0,0 UV-I 24 W/m 1,8 C -5,7 C 38,6 km/h (5 Bft) 99,19 %
13.01.2016 15:25 3,7 C 86 % 1012,5 hPa 0,0 l/m 21,4 km/h (4 Bft) W-SW 252 0 min 0,000 mm 0,0 UV-I 22 W/m 1,6 C -5,4 C 32,2 km/h (5 Bft) 99,12 %
13.01.2016 15:30 3,9 C 85 % 1012,5 hPa 0,0 l/m 22,0 km/h (4 Bft) W 261 0 min 0,000 mm 0,0 UV-I 11 W/m 1,6 C -5,4 C 33,8 km/h (5 Bft) 99,13 %
13.01.2016 15:35 4,1 C 85 % 1012,6 hPa 0,0 l/m 21,7 km/h (4 Bft) W 275 0 min 0,000 mm 0,0 UV-I 14 W/m 1,8 C -5,0 C 40,2 km/h (6 Bft) 99,17 %
13.01.2016 15:40 4,1 C 84 % 1012,6 hPa 0,0 l/m 21,2 km/h (4 Bft) SW 229 0 min 0,000 mm 0,0 UV-I 15 W/m 1,6 C -4,8 C 37,0 km/h (5 Bft) 99,10 %
13.01.2016 15:45 4,2 C 83 % 1012,8 hPa 0,0 l/m 20,3 km/h (4 Bft) W 261 0 min 0,000 mm 0,0 UV-I 13 W/m 1,6 C -4,3 C 37,0 km/h (5 Bft) 98,35 %
13.01.2016 15:50 4,2 C 84 % 1013,0 hPa 0,0 l/m 20,7 km/h (4 Bft) SW 223 0 min 0,000 mm 0,0 UV-I 8 W/m 1,7 C -4,5 C 32,2 km/h (5 Bft) 99,17 %
13.01.2016 15:55 4,1 C 84 % 1012,9 hPa 0,0 l/m 19,5 km/h (3 Bft) W-SW 252 0 min 0,000 mm 0,0 UV-I 7 W/m 1,6 C -4,1 C 37,0 km/h (5 Bft) 100,00 %
13.01.2016 16:00 4,1 C 84 % 1012,9 hPa 0,0 l/m 21,6 km/h (4 Bft) S-SW 202 0 min 0,026 mm 0,0 UV-I 5 W/m 1,6 C -5,0 C 43,5 km/h (6 Bft) 99,13 %
13.01.2016 16:05 4,2 C 83 % 1012,9 hPa 0,0 l/m 23,9 km/h (4 Bft) W-SW 251 0 min 0,000 mm 0,0 UV-I 5 W/m 1,6 C -5,7 C 43,5 km/h (6 Bft) 98,33 %
13.01.2016 16:10 4,2 C 83 % 1013,0 hPa 0,0 l/m 22,9 km/h (4 Bft) W-SW 246 0 min 0,000 mm 0,0 UV-I 6 W/m 1,6 C -5,3 C 37,0 km/h (5 Bft) 100,00 %
13.01.2016 16:15 4,2 C 83 % 1013,2 hPa 0,0 l/m 22,8 km/h (4 Bft) W-SW 241 0 min 0,000 mm 0,0 UV-I 4 W/m 1,6 C -5,3 C 35,4 km/h (5 Bft) 100,00 %
13.01.2016 16:20 4,2 C 83 % 1013,2 hPa 0,0 l/m 23,3 km/h (4 Bft) SW 221 0 min 0,000 mm 0,0 UV-I 4 W/m 1,6 C -5,5 C 35,4 km/h (5 Bft) 99,15 %
13.01.2016 16:25 4,2 C 83 % 1013,3 hPa 0,0 l/m 21,0 km/h (4 Bft) S-SW 205 0 min 0,000 mm 0,0 UV-I 0 W/m 1,6 C -4,6 C 32,2 km/h (5 Bft) 98,35 %
13.01.2016 16:30 4,2 C 83 % 1013,3 hPa 0,0 l/m 28,4 km/h (4 Bft) SW 224 0 min 0,000 mm 0,0 UV-I 0 W/m 1,6 C -7,1 C 45,1 km/h (6 Bft) 95,83 %
13.01.2016 16:35 4,2 C 83 % 1013,4 hPa 0,0 l/m 23,4 km/h (4 Bft) W-SW 242 0 min 0,000 mm 0,0 UV-I 0 W/m 1,6 C -5,5 C 35,4 km/h (5 Bft) 98,11 %
13.01.2016 16:40 4,2 C 82 % 1013,6 hPa 0,0 l/m 25,5 km/h (4 Bft) SW 227 0 min 0,000 mm 0,0 UV-I 0 W/m 1,4 C -6,2 C 41,8 km/h (6 Bft) 96,06 %
13.01.2016 16:45 4,2 C 82 % 1013,8 hPa 0,0 l/m 18,9 km/h (3 Bft) W-SW 245 0 min 0,000 mm 0,0 UV-I 0 W/m 1,4 C -3,7 C 29,0 km/h (5 Bft) 97,32 %
13.01.2016 16:50 4,2 C 82 % 1013,8 hPa 0,0 l/m 25,2 km/h (4 Bft) W-SW 244 0 min 0,000 mm 0,0 UV-I 0 W/m 1,4 C -6,1 C 41,8 km/h (6 Bft) 95,87 %
13.01.2016 16:55 4,2 C 82 % 1013,9 hPa 0,0 l/m 22,1 km/h (4 Bft) SW 225 0 min 0,000 mm 0,0 UV-I 0 W/m 1,4 C -5,0 C 37,0 km/h (5 Bft) 98,21 %
13.01.2016 17:00 4,2 C 81 % 1013,9 hPa 0,0 l/m 26,0 km/h (4 Bft) W-SW 245 0 min 0,025 mm 0,0 UV-I 0 W/m 1,2 C -6,3 C 40,2 km/h (6 Bft) 97,62 %
13.01.2016 17:05 4,3 C 81 % 1014,0 hPa 0,0 l/m 25,3 km/h (4 Bft) W 280 0 min 0,000 mm 0,0 UV-I 0 W/m 1,3 C -6,0 C 45,1 km/h (6 Bft) 98,94 %
13.01.2016 17:10 4,3 C 80 % 1014,0 hPa 0,0 l/m 24,3 km/h (4 Bft) SW 215 0 min 0,000 mm 0,0 UV-I 0 W/m 1,2 C -5,7 C 40,2 km/h (6 Bft) 99,28 %
13.01.2016 17:15 4,3 C 80 % 1014,1 hPa 0,0 l/m 24,1 km/h (4 Bft) NW 304 0 min 0,000 mm 0,0 UV-I 0 W/m 1,2 C -5,6 C 38,6 km/h (5 Bft) 98,17 %
13.01.2016 17:20 4,4 C 79 % 1014,2 hPa 0,0 l/m 30,7 km/h (5 Bft) SW 216 0 min 0,000 mm 0,0 UV-I 0 W/m 1,1 C -7,4 C 49,9 km/h (6 Bft) 100,00 %
13.01.2016 17:25 4,4 C 79 % 1014,3 hPa 0,0 l/m 26,4 km/h (4 Bft) SW 223 0 min 0,000 mm 0,0 UV-I 0 W/m 1,1 C -6,2 C 51,5 km/h (7 Bft) 100,00 %
13.01.2016 17:30 4,4 C 79 % 1014,5 hPa 0,0 l/m 26,0 km/h (4 Bft) W-SW 249 0 min 0,000 mm 0,0 UV-I 0 W/m 1,1 C -6,1 C 48,3 km/h (6 Bft) 100,00 %
13.01.2016 17:35 4,4 C 78 % 1014,6 hPa 0,0 l/m 27,8 km/h (4 Bft) W 259 0 min 0,000 mm 0,0 UV-I 0 W/m 0,9 C -6,6 C 48,3 km/h (6 Bft) 99,17 %
13.01.2016 17:40 4,5 C 79 % 1014,7 hPa 0,0 l/m 29,1 km/h (5 Bft) W-SW 254 0 min 0,000 mm 0,0 UV-I 0 W/m 1,2 C -6,8 C 43,5 km/h (6 Bft) 100,00 %
13.01.2016 17:45 4,4 C 79 % 1014,9 hPa 0,0 l/m 26,1 km/h (4 Bft) W 262 0 min 0,000 mm 0,0 UV-I 0 W/m 1,1 C -6,1 C 51,5 km/h (7 Bft) 100,00 %
13.01.2016 17:50 4,3 C 79 % 1014,9 hPa 0,0 l/m 27,8 km/h (4 Bft) W 267 0 min 0,000 mm 0,0 UV-I 0 W/m 1,0 C -6,8 C 41,8 km/h (6 Bft) 99,17 %
13.01.2016 17:55 4,3 C 79 % 1015,1 hPa 0,0 l/m 25,4 km/h (4 Bft) SW 233 0 min 0,000 mm 0,0 UV-I 0 W/m 1,0 C -6,0 C 40,2 km/h (6 Bft) 99,10 %
13.01.2016 18:00 4,3 C 79 % 1015,0 hPa 0,0 l/m 25,3 km/h (4 Bft) SW 235 0 min 0,051 mm 0,0 UV-I 0 W/m 1,0 C -6,0 C 40,2 km/h (6 Bft) 100,00 %
13.01.2016 18:05 4,4 C 79 % 1015,0 hPa 0,0 l/m 24,5 km/h (4 Bft) W 260 0 min 0,000 mm 0,0 UV-I 0 W/m 1,1 C -5,6 C 40,2 km/h (6 Bft) 100,00 %
13.01.2016 18:10 4,3 C 79 % 1015,6 hPa 0,0 l/m 28,2 km/h (4 Bft) W-SW 254 0 min 0,000 mm 0,0 UV-I 0 W/m 1,0 C -6,9 C 41,8 km/h (6 Bft) 100,00 %
13.01.2016 18:15 4,3 C 79 % 1015,4 hPa 0,0 l/m 26,3 km/h (4 Bft) W 260 0 min 0,000 mm 0,0 UV-I 0 W/m 1,0 C -6,3 C 43,5 km/h (6 Bft) 99,11 %
13.01.2016 18:20 4,3 C 79 % 1015,2 hPa 0,0 l/m 24,7 km/h (4 Bft) W-SW 238 0 min 0,000 mm 0,0 UV-I 0 W/m 1,0 C -5,8 C 46,7 km/h (6 Bft) 99,21 %
13.01.2016 18:25 4,2 C 79 % 1015,2 hPa 0,0 l/m 22,8 km/h (4 Bft) W-SW 254 0 min 0,000 mm 0,0 UV-I 0 W/m 0,9 C -5,3 C 37,0 km/h (5 Bft) 100,00 %
13.01.2016 18:30 4,1 C 80 % 1015,2 hPa 0,0 l/m 23,9 km/h (4 Bft) SW 219 0 min 0,000 mm 0,0 UV-I 0 W/m 1,0 C -5,8 C 37,0 km/h (5 Bft) 99,22 %
13.01.2016 18:35 4,1 C 80 % 1015,3 hPa 0,0 l/m 23,8 km/h (4 Bft) W 262 0 min 0,000 mm 0,0 UV-I 0 W/m 1,0 C -5,8 C 37,0 km/h (5 Bft) 97,32 %
13.01.2016 18:40 4,0 C 81 % 1015,2 hPa 0,0 l/m 24,4 km/h (4 Bft) W-SW 242 0 min 0,000 mm 0,0 UV-I 0 W/m 1,0 C -6,1 C 41,8 km/h (6 Bft) 97,46 %
13.01.2016 18:45 3,8 C 81 % 1015,4 hPa 0,0 l/m 23,7 km/h (4 Bft) W-SW 248 0 min 0,000 mm 0,0 UV-I 0 W/m 0,8 C -6,1 C 43,5 km/h (6 Bft) 96,58 %
13.01.2016 18:50 3,8 C 82 % 1015,4 hPa 0,0 l/m 25,4 km/h (4 Bft) S-SW 209 0 min 0,000 mm 0,0 UV-I 0 W/m 1,0 C -6,7 C 45,1 km/h (6 Bft) 96,61 %
13.01.2016 18:55 3,7 C 82 % 1015,4 hPa 0,0 l/m 30,2 km/h (5 Bft) S 188 0 min 0,000 mm 0,0 UV-I 0 W/m 0,9 C -8,3 C 46,7 km/h (6 Bft) 96,43 %
13.01.2016 19:00 3,7 C 83 % 1015,6 hPa 0,0 l/m 27,5 km/h (4 Bft) SW 236 0 min 0,051 mm 0,0 UV-I 0 W/m 1,1 C -7,5 C 46,7 km/h (6 Bft) 96,58 %
13.01.2016 19:05 3,6 C 83 % 1015,5 hPa 0,0 l/m 26,6 km/h (4 Bft) SW 233 0 min 0,000 mm 0,0 UV-I 0 W/m 1,0 C -7,4 C 46,7 km/h (6 Bft) 94,64 %
13.01.2016 19:10 3,6 C 83 % 1015,4 hPa 0,0 l/m 26,2 km/h (4 Bft) W-NW 285 0 min 0,000 mm 0,0 UV-I 0 W/m 1,0 C -7,2 C 45,1 km/h (6 Bft) 98,45 %
13.01.2016 19:15 3,6 C 83 % 1015,5 hPa 0,0 l/m 27,5 km/h (4 Bft) W-SW 252 0 min 0,000 mm 0,0 UV-I 0 W/m 1,0 C -7,6 C 41,8 km/h (6 Bft) 99,12 %
13.01.2016 19:20 3,6 C 83 % 1015,4 hPa 0,0 l/m 29,5 km/h (5 Bft) W-SW 239 0 min 0,000 mm 0,0 UV-I 0 W/m 1,0 C -8,2 C 57,9 km/h (7 Bft) 98,21 %
13.01.2016 19:25 3,5 C 83 % 1015,5 hPa 0,0 l/m 29,7 km/h (5 Bft) W-SW 253 0 min 0,000 mm 0,0 UV-I 0 W/m 0,9 C -8,4 C 49,9 km/h (6 Bft) 98,37 %
13.01.2016 19:30 3,5 C 83 % 1015,7 hPa 0,0 l/m 28,1 km/h (4 Bft) SW 230 0 min 0,000 mm 0,0 UV-I 0 W/m 0,9 C -7,9 C 48,3 km/h (6 Bft) 100,00 %
13.01.2016 19:35 3,5 C 83 % 1015,7 hPa 0,0 l/m 26,4 km/h (4 Bft) W-SW 251 0 min 0,000 mm 0,0 UV-I 0 W/m 0,9 C -7,4 C 48,3 km/h (6 Bft) 99,08 %
13.01.2016 19:40 3,5 C 83 % 1015,7 hPa 0,0 l/m 29,8 km/h (5 Bft) W 262 0 min 0,000 mm 0,0 UV-I 0 W/m 0,9 C -8,4 C 45,1 km/h (6 Bft) 100,00 %
13.01.2016 19:45 3,4 C 83 % 1015,8 hPa 0,0 l/m 29,4 km/h (5 Bft) W 262 0 min 0,000 mm 0,0 UV-I 0 W/m 0,8 C -8,5 C 46,7 km/h (6 Bft) 99,13 %
13.01.2016 19:50 3,4 C 83 % 1015,9 hPa 0,0 l/m 28,2 km/h (4 Bft) W-NW 284 0 min 0,000 mm 0,0 UV-I 0 W/m 0,8 C -8,1 C 48,3 km/h (6 Bft) 98,35 %
13.01.2016 19:55 3,5 C 83 % 1016,1 hPa 0,0 l/m 28,9 km/h (5 Bft) W-SW 240 0 min 0,000 mm 0,0 UV-I 0 W/m 0,9 C -8,2 C 43,5 km/h (6 Bft) 100,00 %
13.01.2016 20:00 3,5 C 84 % 1016,1 hPa 0,0 l/m 28,4 km/h (4 Bft) W-SW 254 0 min 0,050 mm 0,0 UV-I 0 W/m 1,1 C -8,0 C 45,1 km/h (6 Bft) 100,00 %
13.01.2016 20:05 3,4 C 84 % 1016,1 hPa 0,0 l/m 26,5 km/h (4 Bft) W 265 0 min 0,000 mm 0,0 UV-I 0 W/m 1,0 C -7,6 C 43,5 km/h (6 Bft) 99,17 %
13.01.2016 20:10 3,4 C 84 % 1016,2 hPa 0,2 l/m 25,2 km/h (4 Bft) SW 215 0 min 0,000 mm 0,0 UV-I 0 W/m 1,0 C -7,2 C 38,6 km/h (5 Bft) 99,17 %
13.01.2016 20:15 3,4 C 83 % 1016,3 hPa 0,0 l/m 27,9 km/h (4 Bft) W-SW 249 0 min 0,000 mm 0,0 UV-I 0 W/m 0,8 C -8,0 C 48,3 km/h (6 Bft) 100,00 %
13.01.2016 20:20 3,4 C 83 % 1016,3 hPa 0,0 l/m 32,7 km/h (5 Bft) W-SW 249 0 min 0,000 mm 0,0 UV-I 0 W/m 0,8 C -9,3 C 48,3 km/h (6 Bft) 99,19 %
13.01.2016 20:25 3,4 C 83 % 1016,5 hPa 0,0 l/m 28,9 km/h (5 Bft) W 278 0 min 0,000 mm 0,0 UV-I 0 W/m 0,8 C -8,3 C 43,5 km/h (6 Bft) 98,35 %
13.01.2016 20:30 3,4 C 83 % 1016,6 hPa 0,0 l/m 21,7 km/h (4 Bft) W 259 0 min 0,000 mm 0,0 UV-I 0 W/m 0,8 C -5,9 C 40,2 km/h (6 Bft) 99,11 %
13.01.2016 20:35 3,4 C 83 % 1016,6 hPa 0,0 l/m 24,0 km/h (4 Bft) W 275 0 min 0,000 mm 0,0 UV-I 0 W/m 0,8 C -6,8 C 40,2 km/h (6 Bft) 100,00 %
13.01.2016 20:40 3,4 C 83 % 1016,7 hPa 0,0 l/m 22,6 km/h (4 Bft) SW 231 0 min 0,000 mm 0,0 UV-I 0 W/m 0,8 C -6,3 C 35,4 km/h (5 Bft) 99,17 %
13.01.2016 20:45 3,4 C 82 % 1016,7 hPa 0,0 l/m 20,3 km/h (4 Bft) SW 235 0 min 0,000 mm 0,0 UV-I 0 W/m 0,6 C -5,4 C 27,4 km/h (4 Bft) 96,67 %
13.01.2016 20:50 3,4 C 82 % 1016,6 hPa 0,0 l/m 22,1 km/h (4 Bft) W-SW 244 0 min 0,000 mm 0,0 UV-I 0 W/m 0,6 C -6,1 C 40,2 km/h (6 Bft) 96,52 %
13.01.2016 20:55 3,5 C 81 % 1016,8 hPa 0,0 l/m 25,2 km/h (4 Bft) W 262 0 min 0,000 mm 0,0 UV-I 0 W/m 0,6 C -7,0 C 37,0 km/h (5 Bft) 97,64 %
13.01.2016 21:00 3,6 C 81 % 1016,8 hPa 0,0 l/m 22,7 km/h (4 Bft) SW 224 0 min 0,026 mm 0,0 UV-I 0 W/m 0,7 C -6,0 C 38,6 km/h (5 Bft) 97,37 %
13.01.2016 21:05 3,6 C 80 % 1016,8 hPa 0,0 l/m 22,2 km/h (4 Bft) W-SW 245 0 min 0,000 mm 0,0 UV-I 0 W/m 0,5 C -5,9 C 33,8 km/h (5 Bft) 94,34 %
13.01.2016 21:10 3,6 C 80 % 1016,9 hPa 0,0 l/m 20,4 km/h (4 Bft) W 265 0 min 0,000 mm 0,0 UV-I 0 W/m 0,5 C -5,1 C 40,2 km/h (6 Bft) 97,46 %
13.01.2016 21:15 3,7 C 78 % 1016,8 hPa 0,0 l/m 23,8 km/h (4 Bft) W 268 0 min 0,000 mm 0,0 UV-I 0 W/m 0,2 C -6,3 C 41,8 km/h (6 Bft) 98,41 %
13.01.2016 21:20 3,8 C 78 % 1016,9 hPa 0,0 l/m 22,6 km/h (4 Bft) W-SW 244 0 min 0,000 mm 0,0 UV-I 0 W/m 0,3 C -5,7 C 33,8 km/h (5 Bft) 100,00 %
13.01.2016 21:25 3,9 C 77 % 1017,0 hPa 0,0 l/m 25,9 km/h (4 Bft) W-SW 255 0 min 0,000 mm 0,0 UV-I 0 W/m 0,2 C -6,7 C 41,8 km/h (6 Bft) 98,20 %
13.01.2016 21:30 3,9 C 77 % 1017,0 hPa 0,0 l/m 26,0 km/h (4 Bft) W 261 0 min 0,000 mm 0,0 UV-I 0 W/m 0,2 C -6,8 C 37,0 km/h (5 Bft) 99,13 %
13.01.2016 21:35 3,8 C 77 % 1017,1 hPa 0,0 l/m 21,8 km/h (4 Bft) W-SW 242 0 min 0,000 mm 0,0 UV-I 0 W/m 0,1 C -5,4 C 33,8 km/h (5 Bft) 100,00 %
13.01.2016 21:40 3,8 C 77 % 1017,2 hPa 0,0 l/m 21,8 km/h (4 Bft) W-SW 238 0 min 0,000 mm 0,0 UV-I 0 W/m 0,1 C -5,4 C 35,4 km/h (5 Bft) 100,00 %
13.01.2016 21:45 3,8 C 76 % 1017,2 hPa 0,0 l/m 20,9 km/h (4 Bft) W 265 0 min 0,000 mm 0,0 UV-I 0 W/m -0,0 C -5,1 C 32,2 km/h (5 Bft) 99,08 %
13.01.2016 21:50 3,8 C 76 % 1017,2 hPa 0,0 l/m 23,1 km/h (4 Bft) W-SW 253 0 min 0,000 mm 0,0 UV-I 0 W/m -0,0 C -5,9 C 33,8 km/h (5 Bft) 99,18 %
13.01.2016 21:55 3,8 C 76 % 1017,2 hPa 0,0 l/m 22,2 km/h (4 Bft) W-SW 248 0 min 0,000 mm 0,0 UV-I 0 W/m -0,0 C -5,6 C 48,3 km/h (6 Bft) 100,00 %
13.01.2016 22:00 3,7 C 76 % 1017,2 hPa 0,0 l/m 21,3 km/h (4 Bft) W-SW 246 0 min 0,051 mm 0,0 UV-I 0 W/m -0,1 C -5,4 C 33,8 km/h (5 Bft) 100,00 %
13.01.2016 22:05 3,8 C 76 % 1017,3 hPa 0,0 l/m 22,7 km/h (4 Bft) W-SW 252 0 min 0,000 mm 0,0 UV-I 0 W/m -0,0 C -5,8 C 41,8 km/h (6 Bft) 98,21 %
13.01.2016 22:10 3,8 C 75 % 1017,3 hPa 0,0 l/m 24,6 km/h (4 Bft) W 260 0 min 0,000 mm 0,0 UV-I 0 W/m -0,2 C -6,4 C 45,1 km/h (6 Bft) 99,10 %
13.01.2016 22:15 3,8 C 75 % 1017,4 hPa 0,0 l/m 21,0 km/h (4 Bft) W-SW 246 0 min 0,000 mm 0,0 UV-I 0 W/m -0,2 C -5,1 C 32,2 km/h (5 Bft) 100,00 %
13.01.2016 22:20 3,8 C 75 % 1017,4 hPa 0,0 l/m 21,7 km/h (4 Bft) W 261 0 min 0,000 mm 0,0 UV-I 0 W/m -0,2 C -5,4 C 33,8 km/h (5 Bft) 99,17 %
13.01.2016 22:25 3,8 C 74 % 1017,4 hPa 0,0 l/m 23,5 km/h (4 Bft) W-SW 258 0 min 0,000 mm 0,0 UV-I 0 W/m -0,4 C -6,1 C 35,4 km/h (5 Bft) 98,17 %
13.01.2016 22:30 3,8 C 75 % 1017,4 hPa 0,0 l/m 21,3 km/h (4 Bft) W-SW 258 0 min 0,000 mm 0,0 UV-I 0 W/m -0,2 C -5,2 C 37,0 km/h (5 Bft) 100,00 %
13.01.2016 22:35 3,8 C 74 % 1017,4 hPa 0,0 l/m 22,0 km/h (4 Bft) W 277 0 min 0,000 mm 0,0 UV-I 0 W/m -0,4 C -5,5 C 35,4 km/h (5 Bft) 99,06 %
13.01.2016 22:40 3,7 C 74 % 1017,5 hPa 0,0 l/m 20,8 km/h (4 Bft) W-SW 252 0 min 0,000 mm 0,0 UV-I 0 W/m -0,5 C -5,2 C 32,2 km/h (5 Bft) 98,35 %
13.01.2016 22:45 3,7 C 74 % 1017,6 hPa 0,0 l/m 21,9 km/h (4 Bft) W-SW 245 0 min 0,000 mm 0,0 UV-I 0 W/m -0,5 C -5,6 C 30,6 km/h (5 Bft) 99,15 %
13.01.2016 22:50 3,7 C 74 % 1017,6 hPa 0,0 l/m 19,6 km/h (3 Bft) W-SW 254 0 min 0,000 mm 0,0 UV-I 0 W/m -0,5 C -4,7 C 33,8 km/h (5 Bft) 95,93 %
13.01.2016 22:55 3,7 C 73 % 1017,7 hPa 0,0 l/m 22,5 km/h (4 Bft) W-SW 247 0 min 0,000 mm 0,0 UV-I 0 W/m -0,7 C -5,8 C 33,8 km/h (5 Bft) 98,25 %
13.01.2016 23:00 3,7 C 73 % 1017,7 hPa 0,0 l/m 20,7 km/h (4 Bft) W-SW 246 0 min 0,050 mm 0,0 UV-I 0 W/m -0,7 C -5,1 C 33,8 km/h (5 Bft) 98,02 %
13.01.2016 23:05 3,7 C 73 % 1017,7 hPa 0,0 l/m 21,6 km/h (4 Bft) SW 235 0 min 0,000 mm 0,0 UV-I 0 W/m -0,7 C -5,5 C 40,2 km/h (6 Bft) 96,58 %
13.01.2016 23:10 3,7 C 73 % 1017,7 hPa 0,0 l/m 20,3 km/h (4 Bft) W-SW 247 0 min 0,000 mm 0,0 UV-I 0 W/m -0,7 C -5,0 C 33,8 km/h (5 Bft) 97,46 %
13.01.2016 23:15 3,7 C 71 % 1017,6 hPa 0,0 l/m 26,4 km/h (4 Bft) W-SW 240 0 min 0,000 mm 0,0 UV-I 0 W/m -1,1 C -7,2 C 49,9 km/h (6 Bft) 96,43 %
13.01.2016 23:20 3,7 C 71 % 1017,7 hPa 0,0 l/m 23,9 km/h (4 Bft) W-SW 250 0 min 0,000 mm 0,0 UV-I 0 W/m -1,1 C -6,3 C 35,4 km/h (5 Bft) 95,83 %
13.01.2016 23:25 3,7 C 71 % 1017,7 hPa 0,0 l/m 24,7 km/h (4 Bft) W 264 0 min 0,000 mm 0,0 UV-I 0 W/m -1,1 C -6,6 C 41,8 km/h (6 Bft) 100,00 %
13.01.2016 23:30 3,6 C 71 % 1017,7 hPa 0,0 l/m 24,8 km/h (4 Bft) W-NW 286 0 min 0,000 mm 0,0 UV-I 0 W/m -1,2 C -6,8 C 43,5 km/h (6 Bft) 99,17 %
13.01.2016 23:35 3,6 C 71 % 1017,8 hPa 0,0 l/m 19,8 km/h (3 Bft) W 259 0 min 0,000 mm 0,0 UV-I 0 W/m -1,2 C -4,9 C 30,6 km/h (5 Bft) 100,00 %
13.01.2016 23:40 3,5 C 71 % 1017,8 hPa 0,0 l/m 27,1 km/h (4 Bft) W 259 0 min 0,000 mm 0,0 UV-I 0 W/m -1,3 C -7,6 C 43,5 km/h (6 Bft) 100,00 %
13.01.2016 23:45 3,4 C 71 % 1017,6 hPa 0,0 l/m 23,9 km/h (4 Bft) W 263 0 min 0,000 mm 0,0 UV-I 0 W/m -1,3 C -6,7 C 41,8 km/h (6 Bft) 100,00 %
13.01.2016 23:50 3,4 C 72 % 1017,7 hPa 0,0 l/m 20,8 km/h (4 Bft) W-SW 246 0 min 0,000 mm 0,0 UV-I 0 W/m -1,2 C -5,6 C 32,2 km/h (5 Bft) 98,31 %
13.01.2016 23:55 3,3 C 71 % 1017,7 hPa 0,0 l/m 21,7 km/h (4 Bft) W 264 0 min 0,000 mm 0,0 UV-I 0 W/m -1,4 C -6,1 C 32,2 km/h (5 Bft) 100,00 %
_ Min-Zeit 05:20 23:15 00:00 - 02:40 - - - - - - 23:55 20:20 01:55 21:05
Minimum _ 2,2 C 71 % 1004,9 hPa - 12,2 km/h (2 Bft) - - - - - - -1,4 C -9,3 C 22,5 km/h (4 Bft) 94,34 %
_ Max-Zeit 00:40 04:30 23:35 14:35 11:35 - - 08:15 10:00 00:00 09:50 14:55 02:40 11:15 00:55
Maximum _ 5,0 C 91 % 1017,8 hPa 0,2 l/m 35,6 km/h
W-SW (5 Bft)
- - 5 min 0,077 mm 0,0 UV-I 281 W/m 1,9 C -0,4 C 64,4 km/h
SW (8 Bft)
100,00 %
Durchschnitt _ 3,8 C 82 % 1010,8 hPa #0,6 l/m 22,9 km/h (4 Bft) W-SW - #35 min. #1,041 mm 0,0 UV-I 61 W/m 0,9 C -5,7 C 38,1 km/h (5 Bft) 98,63 %